Regional Weather Roundup
Issued by NWS Upton, NY

Current Version | Previous Version | Graphics & Text | Print | Product List | Glossary Off
Versions: 1 2 3 4 5 6 7 8 9 10 11 12 13 14 15 16 17 18 19 20 21 22 23 24 25 26 27 28 29 30 31 32 33 34 35 36 37 38 39 40 41 42 43 44 45 46 47 48 49 50

000
ASUS41 KOKX 291105
RWROKX

REGIONAL WEATHER ROUNDUP
NATIONAL WEATHER SERVICE NEW YORK NY
700 AM EDT FRI AUG 29 2014

NOTE: "FAIR" INDICATES FEW OR NO CLOUDS BELOW 12,000 FEET WITH NO
SIGNIFICANT WEATHER AND/OR OBSTRUCTIONS TO VISIBILITY.

NYZ071-072-176-178-NJZ106-104-291200-
NEW YORK CITY METRO AREA


CITY           SKY/WX    TMP DP  RH WIND       PRES   REMARKS
CENTRAL PARK   CLEAR     61  51  70 CALM      30.17R
LAGUARDIA APRT MOCLDY    64  51  62 NE5       30.14R
KENNEDY INTL   PTCLDY    64  50  60 N8        30.15R
NEWARK/LIBERTY MOCLDY    63  51  65 N6        30.15R
BRNX BOT. GARD   N/A     59  50  72 N1        30.17R
TETERBORO      CLEAR     60  50  69 N3        30.14R
$$

NYZ177-179-078>081-291200-
LONG ISLAND NEW YORK

CITY           SKY/WX    TMP DP  RH WIND       PRES   REMARKS
FARMINGDALE    CLEAR     62  52  69 CALM      30.14R
ISLIP          CLEAR     62  53  72 N3        30.11R
SHIRLEY        CLEAR     57  52  83 N3        30.13R
WESTHAMPTON    CLEAR     53  49  86 CALM      30.14R
MONTAUK POINT    N/A     65  52  62 N10       30.13R
$$

NYZ052-065-067-291200-
HUDSON VALLEY

CITY           SKY/WX    TMP DP  RH WIND       PRES   REMARKS
WHITE PLAINS   CLEAR     57  50  77 NW3       30.14R
NEWBURGH       CLEAR     52  50  93 CALM      30.17R
MONTGOMERY     CLEAR     47  45  93 CALM      30.17R
POUGHKEEPSIE   CLEAR     50  48  93 CALM      30.16R
ALBANY         PTCLDY    52  49  89 CALM      30.17R
$$

NJZ001-105-106-008-010-013-015-019>022-104-291200-
NEW JERSEY

CITY           SKY/WX    TMP DP  RH WIND       PRES   REMARKS
NEWARK/LIBERTY MOCLDY    63  51  65 N6        30.15R
TETERBORO      CLEAR     60  50  69 N3        30.14R
CALDWELL       CLEAR     54  50  86 CALM      30.16R
MORRISTOWN     CLEAR     50  48  93 CALM      30.15R
SOMERVILLE     PTCLDY    51  49  92 CALM      30.15R
LINDEN         FAIR      63  54  72 NW5       30.17R
SUSSEX         LGT RAIN  50  48  93 CALM      30.17R
ANDOVER          N/A     50  48  93 CALM      30.18R
TRENTON        PTCLDY    57  50  77 NW6       30.15R
MILLVILLE      CLEAR     51  49  92 CALM      30.16R
ATLANTIC CITY  PTCLDY    54  51  90 NW3       30.14R
WRIGHTSTOWN    CLEAR     56  51  82 N6        30.13R
TOMS RIVER     CLEAR     55  50  82 N5        30.15R
BELMAR         CLEAR     55  46  71 NW5       30.15R
$$

PAZ047>061-062-071-291200-
EASTERN PENNSYLVANIA

CITY           SKY/WX    TMP DP  RH WIND       PRES   REMARKS
PHILADELPHIA   MOCLDY    62  50  64 N7        30.17R
ALLENTOWN      PTCLDY    52  48  86 CALM      30.18R
SCRANTON       PTCLDY    50  47  89 CALM      30.20R
$$

CTZ002-004>006-009-010-012-RIZ004-006-007-MAZ004-011-015-291200-
SOUTHERN NEW ENGLAND
 IN CT

CITY           SKY/WX    TMP DP  RH WIND       PRES   REMARKS
BRADLEY INTL   PTCLDY    55  50  83 CALM      30.12R
HARTFORD       CLEAR     56  52  86 CALM      30.13R
DANBURY        CLEAR     53  50  89 SW5       30.16R
WTRBRY/OXFORD  CLEAR     52  45  76 N6        30.16R
BRIDGEPORT     CLEAR     60  53  77 NE5       30.14R
MERIDEN        CLEAR     53  49  86 CALM      30.14R
NEW HAVEN      CLEAR     61  53  75 N5        30.13R
CHESTER        FAIR      55  52  88 N5        30.13R
GROTON         CLEAR     56  51  84 N5        30.11R
WILLIMANTIC    CLEAR     53  48  83 CALM      30.13R

 IN RI

CITY           SKY/WX    TMP DP  RH WIND       PRES   REMARKS
PROVIDENCE     PTCLDY    59  50  72 N6        30.11R
BLOCK ISLAND   CLEAR     61  52  72 N7        30.11R
WESTERLY       CLEAR     59  51  75 N3        30.12R

 IN MA

CITY           SKY/WX    TMP DP  RH WIND       PRES   REMARKS
BOSTON         PTCLDY    61  50  67 NW12      30.10R
WORCESTER      CLEAR     57  49  74 N10       30.12R
WESTFIELD      CLEAR     53  49  86 NE3       30.13R
PROVINCETOWN   CLEAR     64  55  72 N10       30.09R
NANTUCKET      CLEAR     65  53  65 N9        30.08R
$$

ANZ330-335-338-340-345-350-353-355-291200-
COASTAL MARINE OBSERVATIONS


STATION/POSITION TIME  SKY/WX   TEMP    WIND        PRES    VSBY  WAVE
                                AIR SEA DIR/SP/G                  HT/PER
                 (UTC)          (F)     (DEG/KT/KT) (MB)    (MI)  (FT/S)
NY HARB ENTRANCE NOT AVBL
4S FIRE IS       NOT AVBL
23SW MTP         1100                                 N/A           4/11
HUDSON CANYON    1100            70 72   40/ 12/ 14 1019.1          5/11
EXECUTION ROCKS  1100            65 74  350/  8/ 10   N/A
WESTERN LI SOUND 1100            63     340/  8/ 10   N/A           0
CENTRAL LI SOUND 1000            63 71  340/ 10/ 12   N/A           1/ 2
EASTERN LI SOUND 1000            64 68  330/  8/ 12   N/A
ROBBINS REEF     1000            63     330/  8/ 11   N/A
$$


>>>>>>>>>>>>>>>>>>>>>>>>>>>> KEY <<<<<<<<<<<<<<<<<<<<<<<<<<<
>                                                          <
>     SKY/WX - SKY CONDITION/PRESENT WEATHER               <
>     TMP    - TEMPERATURE IN FAHRENHEIT                   <
>     DP     - DEWPOINT IN FAHRENHEIT                      <
>     RH     - RELATIVE HUMIDITY IN PERCENT                <
>     WIND   - DIRECTION AND SPEED IN MPH                  <
>     PRES   - MEAN SEA LEVEL PRESSURE IN INCHES OF HG     <
>     WCI    - WIND CHILL INDEX                            <
>     VSB    - VISIBILITY IN MILES                         <
>     HX     - HEAT INDEX                                  <
>     TC     - TEMPERATURE IN CELSIUS                      <
>     VRB    - VARIABLE WIND DIRECTION                     <
>                                                          <
>>>>>>>>>>>>>>>>>>>>>>>>>>>> KEY <<<<<<<<<<<<<<<<<<<<<<<<<<<




USA.gov is the U.S. government's official web portal to all federal, state and local government web resources and services.